Time,TemperatureF,DewpointF,PressureIn,WindDirection,WindDirectionDegrees,WindSpeedMPH,WindSpeedGustMPH,Humidity,HourlyPrecipIn,Conditions,Clouds,dailyrainin,SoftwareType,DateUTC
2013-01-28 00:02:00,38.2,36.6,30.12,SSE,155,1.0,2.0,94,0.01,,SKC,0.00,VWS V14.01,2013-01-28 05:02:00,
2013-01-28 00:03:00,38.2,36.6,30.12,South,184,2.0,4.0,94,0.01,,SKC,0.00,VWS V14.01,2013-01-28 05:03:00,
2013-01-28 00:05:00,38.2,36.6,30.12,South,171,11.0,12.0,94,0.01,,SKC,0.00,VWS V14.01,2013-01-28 05:05:00,
2013-01-28 00:10:00,38.3,37.0,30.12,SE,141,0.0,16.0,95,0.01,,SKC,0.00,VWS V14.01,2013-01-28 05:10:00,
2013-01-28 00:16:00,38.5,37.2,30.13,South,169,1.0,16.0,95,0.01,,SKC,0.00,VWS V14.01,2013-01-28 05:16:00,
2013-01-28 00:21:00,38.5,37.2,30.13,South,173,6.0,16.0,95,0.01,,SKC,0.00,VWS V14.01,2013-01-28 05:21:00,
2013-01-28 00:26:00,38.6,37.3,30.13,South,175,6.0,16.0,95,0.01,,SKC,0.00,VWS V14.01,2013-01-28 05:26:00,
2013-01-28 00:31:00,38.8,37.5,30.13,South,172,0.0,1.0,95,0.00,,SKC,0.00,VWS V14.01,2013-01-28 05:31:00,
2013-01-28 00:36:00,38.8,37.5,30.13,SSW,195,10.0,10.0,95,0.00,,SKC,0.00,VWS V14.01,2013-01-28 05:36:00,
2013-01-28 00:41:00,38.8,37.5,30.13,SSE,168,2.0,12.0,95,0.00,,SKC,0.00,VWS V14.01,2013-01-28 05:41:00,
2013-01-28 00:46:00,38.8,37.5,30.13,South,187,1.0,12.0,95,0.00,,SKC,0.00,VWS V14.01,2013-01-28 05:46:00,
2013-01-28 00:51:00,38.8,37.5,30.13,ESE,115,3.0,12.0,95,0.00,,SKC,0.00,VWS V14.01,2013-01-28 05:51:00,
2013-01-28 00:56:00,38.8,37.5,30.13,SE,136,0.0,12.0,95,0.00,,SKC,0.00,VWS V14.01,2013-01-28 05:56:00,
2013-01-28 01:01:00,38.8,37.5,30.12,SE,136,4.0,11.0,95,0.00,,SKC,0.00,VWS V14.01,2013-01-28 06:01:00,
2013-01-28 01:06:00,38.8,37.5,30.12,South,172,1.0,17.0,95,0.00,,SKC,0.00,VWS V14.01,2013-01-28 06:06:00,
2013-01-28 01:11:00,38.8,37.5,30.12,SE,143,3.0,17.0,95,0.00,,SKC,0.00,VWS V14.01,2013-01-28 06:11:00,
2013-01-28 01:16:00,38.8,37.5,30.10,SSE,148,1.0,17.0,95,0.00,,SKC,0.00,VWS V14.01,2013-01-28 06:16:00,
2013-01-28 01:21:00,38.9,37.6,30.10,South,174,4.0,17.0,95,0.00,,SKC,0.00,VWS V14.01,2013-01-28 06:21:00,
2013-01-28 01:26:00,39.1,37.8,30.10,South,177,0.0,17.0,95,0.00,,SKC,0.00,VWS V14.01,2013-01-28 06:26:00,
2013-01-28 01:31:00,39.1,37.8,30.10,South,181,2.0,6.0,95,0.00,,SKC,0.00,VWS V14.01,2013-01-28 06:31:00,
2013-01-28 01:36:00,39.2,37.9,30.10,SSE,162,3.0,7.0,95,0.00,,SKC,0.00,VWS V14.01,2013-01-28 06:36:00,
2013-01-28 01:41:00,39.3,38.3,30.10,SW,231,2.0,9.0,96,0.00,,SKC,0.00,VWS V14.01,2013-01-28 06:41:00,
2013-01-28 01:47:00,39.5,38.5,30.10,SE,143,6.0,9.0,96,0.00,,SKC,0.00,VWS V14.01,2013-01-28 06:47:00,
2013-01-28 01:52:00,39.5,38.5,30.10,SE,141,3.0,10.0,96,0.00,,SKC,0.00,VWS V14.01,2013-01-28 06:52:00,
2013-01-28 01:57:00,39.6,38.6,30.10,SSE,150,1.0,10.0,96,0.00,,SKC,0.00,VWS V14.01,2013-01-28 06:57:00,
2013-01-28 02:02:00,39.9,38.8,30.08,East,101,3.0,9.0,96,0.00,,SKC,0.00,VWS V14.01,2013-01-28 07:02:00,
2013-01-28 02:07:00,40.1,39.0,30.08,SE,124,5.0,11.0,96,0.00,,SKC,0.00,VWS V14.01,2013-01-28 07:07:00,
2013-01-28 02:12:00,40.2,39.2,30.08,SE,129,5.0,11.0,96,0.00,,SKC,0.00,VWS V14.01,2013-01-28 07:12:00,
2013-01-28 02:17:00,40.3,39.2,30.08,ESE,104,6.0,14.0,96,0.00,,SKC,0.00,VWS V14.01,2013-01-28 07:17:00,
2013-01-28 02:22:00,40.5,39.5,30.08,SE,144,2.0,14.0,96,0.00,,SKC,0.00,VWS V14.01,2013-01-28 07:22:00,
2013-01-28 02:27:00,40.5,39.5,30.08,South,177,1.0,14.0,96,0.00,,SKC,0.00,VWS V14.01,2013-01-28 07:27:00,
2013-01-28 02:32:00,40.5,39.5,30.08,South,171,6.0,12.0,96,0.00,,SKC,0.00,VWS V14.01,2013-01-28 07:32:00,
2013-01-28 02:37:00,40.6,39.5,30.08,SSE,152,6.0,12.0,96,0.00,,SKC,0.00,VWS V14.01,2013-01-28 07:37:00,
2013-01-28 02:42:00,40.8,39.8,30.08,SE,139,6.0,12.0,96,0.00,,SKC,0.00,VWS V14.01,2013-01-28 07:42:00,
2013-01-28 02:47:00,40.8,39.8,30.07,SE,141,6.0,12.0,96,0.00,,SKC,0.00,VWS V14.01,2013-01-28 07:47:00,
2013-01-28 02:52:00,40.9,39.8,30.07,SSE,161,2.0,12.0,96,0.00,,SKC,0.00,VWS V14.01,2013-01-28 07:52:00,
2013-01-28 02:57:00,41.1,40.0,30.07,South,179,5.0,12.0,96,0.00,,SKC,0.00,VWS V14.01,2013-01-28 07:57:00,
2013-01-28 03:03:00,41.2,40.2,30.06,SSW,210,4.0,10.0,96,0.00,,SKC,0.00,VWS V14.01,2013-01-28 08:03:00,
2013-01-28 03:08:00,41.3,40.2,30.06,SSW,198,6.0,17.0,96,0.00,,SKC,0.00,VWS V14.01,2013-01-28 08:08:00,
2013-01-28 03:13:00,41.5,40.5,30.06,ESE,120,3.0,17.0,96,0.00,,SKC,0.00,VWS V14.01,2013-01-28 08:13:00,
2013-01-28 03:18:00,41.5,40.5,30.07,South,181,4.0,17.0,96,0.00,,SKC,0.00,VWS V14.01,2013-01-28 08:18:00,
2013-01-28 03:23:00,41.6,40.5,30.07,South,169,1.0,17.0,96,0.00,,SKC,0.00,VWS V14.01,2013-01-28 08:23:00,
2013-01-28 03:28:00,41.8,40.8,30.07,SSE,162,3.0,17.0,96,0.00,,SKC,0.00,VWS V14.01,2013-01-28 08:28:00,
2013-01-28 03:33:00,41.9,40.8,30.07,SSW,211,2.0,9.0,96,0.00,,SKC,0.00,VWS V14.01,2013-01-28 08:33:00,
2013-01-28 03:38:00,42.2,41.1,30.07,South,172,1.0,10.0,96,0.00,,SKC,0.00,VWS V14.01,2013-01-28 08:38:00,
2013-01-28 03:43:00,42.2,41.1,30.07,SSE,156,1.0,11.0,96,0.00,,SKC,0.00,VWS V14.01,2013-01-28 08:43:00,
2013-01-28 03:48:00,42.3,41.2,30.07,WSW,255,11.0,11.0,96,0.00,,SKC,0.00,VWS V14.01,2013-01-28 08:48:00,
2013-01-28 03:53:00,42.5,41.4,30.07,SSE,150,5.0,11.0,96,0.00,,SKC,0.00,VWS V14.01,2013-01-28 08:53:00,
2013-01-28 03:58:00,42.6,41.5,30.07,South,179,2.0,11.0,96,0.00,,SKC,0.00,VWS V14.01,2013-01-28 08:58:00,
2013-01-28 04:03:00,42.6,41.5,30.06,South,175,4.0,7.0,96,0.00,,SKC,0.00,VWS V14.01,2013-01-28 09:03:00,
2013-01-28 04:08:00,42.5,41.4,30.06,SE,127,4.0,12.0,96,0.00,,SKC,0.00,VWS V14.01,2013-01-28 09:08:00,
2013-01-28 04:13:00,42.5,41.4,30.06,South,179,1.0,12.0,96,0.00,,SKC,0.00,VWS V14.01,2013-01-28 09:13:00,
2013-01-28 04:18:00,42.6,41.5,30.06,SE,140,2.0,12.0,96,0.00,,SKC,0.00,VWS V14.01,2013-01-28 09:18:00,
2013-01-28 04:24:00,42.6,41.5,30.06,South,176,3.0,12.0,96,0.00,,SKC,0.00,VWS V14.01,2013-01-28 09:24:00,
2013-01-28 04:29:00,42.6,41.5,30.06,SE,145,1.0,12.0,96,0.00,,SKC,0.00,VWS V14.01,2013-01-28 09:29:00,
2013-01-28 04:34:00,42.8,41.7,30.04,SE,141,1.0,8.0,96,0.00,,SKC,0.00,VWS V14.01,2013-01-28 09:34:00,
2013-01-28 04:39:00,42.8,41.7,30.04,South,179,4.0,9.0,96,0.00,,SKC,0.00,VWS V14.01,2013-01-28 09:39:00,
2013-01-28 04:44:00,42.9,41.8,30.04,South,176,3.0,12.0,96,0.00,,SKC,0.00,VWS V14.01,2013-01-28 09:44:00,
2013-01-28 04:49:00,42.9,41.8,30.04,SE,136,1.0,12.0,96,0.00,,SKC,0.00,VWS V14.01,2013-01-28 09:49:00,
2013-01-28 04:54:00,42.9,41.8,30.04,SSE,153,6.0,13.0,96,0.00,,SKC,0.00,VWS V14.01,2013-01-28 09:54:00,
2013-01-28 04:59:00,43.1,42.0,30.04,SE,146,3.0,13.0,96,0.00,,SKC,0.00,VWS V14.01,2013-01-28 09:59:00,
2013-01-28 05:04:00,43.1,42.0,30.03,South,176,3.0,12.0,96,0.00,,SKC,0.00,VWS V14.01,2013-01-28 10:04:00,
2013-01-28 05:09:00,43.2,42.1,30.03,South,176,10.0,12.0,96,0.00,,SKC,0.00,VWS V14.01,2013-01-28 10:09:00,
2013-01-28 05:14:00,43.3,42.2,30.03,SSW,200,6.0,14.0,96,0.00,,SKC,0.00,VWS V14.01,2013-01-28 10:14:00,
2013-01-28 05:19:00,43.5,42.4,30.03,SSE,154,1.0,14.0,96,0.00,,SKC,0.00,VWS V14.01,2013-01-28 10:19:00,
2013-01-28 05:24:00,43.6,42.5,30.03,South,180,3.0,14.0,96,0.00,,SKC,0.00,VWS V14.01,2013-01-28 10:24:00,
2013-01-28 05:30:00,43.8,42.7,30.02,SSW,193,6.0,14.0,96,0.00,,SKC,0.00,VWS V14.01,2013-01-28 10:30:00,
2013-01-28 05:35:00,43.8,42.7,30.02,South,186,4.0,12.0,96,0.00,,SKC,0.00,VWS V14.01,2013-01-28 10:35:00,
2013-01-28 05:40:00,43.9,42.8,30.02,SSE,150,1.0,12.0,96,0.00,,SKC,0.00,VWS V14.01,2013-01-28 10:40:00,
2013-01-28 05:45:00,44.1,43.0,30.01,SSE,149,4.0,13.0,96,0.00,,SKC,0.00,VWS V14.01,2013-01-28 10:45:00,
2013-01-28 05:50:00,44.2,43.1,30.01,ESE,120,1.0,14.0,96,0.00,,SKC,0.00,VWS V14.01,2013-01-28 10:50:00,
2013-01-28 05:55:00,44.3,43.2,30.01,South,191,0.0,14.0,96,0.00,,SKC,0.00,VWS V14.01,2013-01-28 10:55:00,
2013-01-28 06:00:00,44.3,43.5,30.02,SE,139,0.0,14.0,97,0.00,,SKC,0.00,VWS V14.01,2013-01-28 11:00:00,
2013-01-28 06:05:00,44.5,43.4,30.02,South,181,2.0,4.0,96,0.01,,SKC,0.01,VWS V14.01,2013-01-28 11:05:00,
2013-01-28 06:10:00,44.6,43.5,30.02,South,180,7.0,7.0,96,0.07,,SKC,0.07,VWS V14.01,2013-01-28 11:10:00,
2013-01-28 06:15:00,44.6,43.5,30.03,SSE,150,2.0,11.0,96,0.11,,SKC,0.11,VWS V14.01,2013-01-28 11:15:00,
2013-01-28 06:20:00,44.6,43.5,30.03,South,181,13.0,13.0,96,0.12,,SKC,0.12,VWS V14.01,2013-01-28 11:20:00,
2013-01-28 06:25:00,44.6,43.5,30.03,South,180,2.0,13.0,96,0.12,,SKC,0.12,VWS V14.01,2013-01-28 11:25:00,
2013-01-28 06:30:00,44.6,43.8,30.03,SE,135,0.0,13.0,97,0.13,,SKC,0.13,VWS V14.01,2013-01-28 11:30:00,
2013-01-28 06:35:00,44.6,43.5,30.03,South,191,2.0,4.0,96,0.13,,SKC,0.13,VWS V14.01,2013-01-28 11:35:00,
2013-01-28 06:40:00,44.6,43.5,30.03,South,172,3.0,4.0,96,0.13,,SKC,0.13,VWS V14.01,2013-01-28 11:40:00,
2013-01-28 06:45:00,44.6,43.5,30.03,SSW,212,0.0,10.0,96,0.13,,SKC,0.13,VWS V14.01,2013-01-28 11:45:00,
2013-01-28 06:50:00,44.6,43.5,30.03,South,187,0.0,10.0,96,0.14,,SKC,0.14,VWS V14.01,2013-01-28 11:50:00,
2013-01-28 06:56:00,44.6,43.5,30.03,SE,129,1.0,10.0,96,0.14,,SKC,0.14,VWS V14.01,2013-01-28 11:56:00,
2013-01-28 07:01:00,44.6,43.5,30.04,West,281,0.0,1.0,96,0.14,,SKC,0.14,VWS V14.01,2013-01-28 12:01:00,
2013-01-28 07:06:00,44.6,43.5,30.04,SSW,210,0.0,5.0,96,0.15,,SKC,0.15,VWS V14.01,2013-01-28 12:06:00,
2013-01-28 07:11:00,44.6,43.5,30.04,South,178,2.0,5.0,96,0.15,,SKC,0.15,VWS V14.01,2013-01-28 12:11:00,
2013-01-28 07:16:00,44.6,43.5,30.03,South,169,2.0,9.0,96,0.16,,SKC,0.16,VWS V14.01,2013-01-28 12:16:00,
2013-01-28 07:21:00,44.8,44.0,30.03,South,180,0.0,9.0,97,0.16,,SKC,0.16,VWS V14.01,2013-01-28 12:21:00,
2013-01-28 07:26:00,45.2,44.4,30.03,SSW,193,2.0,13.0,97,0.16,,SKC,0.16,VWS V14.01,2013-01-28 12:26:00,
2013-01-28 07:31:00,45.5,44.7,30.04,SSE,153,1.0,3.0,97,0.03,,SKC,0.16,VWS V14.01,2013-01-28 12:31:00,
2013-01-28 07:36:00,45.7,44.9,30.04,South,175,1.0,13.0,97,0.03,,SKC,0.16,VWS V14.01,2013-01-28 12:36:00,
2013-01-28 07:41:00,45.8,45.0,30.04,SSW,208,6.0,13.0,97,0.03,,SKC,0.16,VWS V14.01,2013-01-28 12:41:00,
2013-01-28 07:46:00,46.0,45.2,30.03,SW,219,4.0,13.0,97,0.03,,SKC,0.16,VWS V14.01,2013-01-28 12:46:00,
2013-01-28 07:51:00,46.2,45.4,30.03,SW,236,6.0,14.0,97,0.03,,SKC,0.16,VWS V14.01,2013-01-28 12:51:00,
2013-01-28 07:56:00,46.5,45.7,30.03,SE,143,10.0,14.0,97,0.03,,SKC,0.16,VWS V14.01,2013-01-28 12:56:00,
2013-01-28 08:01:00,46.7,45.9,30.03,SSW,204,10.0,10.0,97,0.02,,SKC,0.16,VWS V14.01,2013-01-28 13:01:00,
2013-01-28 08:07:00,46.8,46.0,30.03,SSE,160,2.0,14.0,97,0.02,,SKC,0.16,VWS V14.01,2013-01-28 13:07:00,
2013-01-28 08:12:00,47.0,46.2,30.03,SE,141,6.0,14.0,97,0.02,,SKC,0.16,VWS V14.01,2013-01-28 13:12:00,
2013-01-28 08:17:00,47.1,46.3,30.03,South,173,2.0,19.0,97,0.02,,SKC,0.16,VWS V14.01,2013-01-28 13:17:00,
2013-01-28 08:22:00,47.1,46.3,30.03,SSE,167,9.0,19.0,97,0.02,,SKC,0.16,VWS V14.01,2013-01-28 13:22:00,
2013-01-28 08:27:00,47.3,46.5,30.03,ESE,107,3.0,19.0,97,0.02,,SKC,0.16,VWS V14.01,2013-01-28 13:27:00,
2013-01-28 08:32:00,47.3,46.5,30.03,SW,236,4.0,8.0,97,0.00,,SKC,0.16,VWS V14.01,2013-01-28 13:32:00,
2013-01-28 08:37:00,47.3,46.5,30.03,SSW,212,6.0,17.0,97,0.00,,SKC,0.16,VWS V14.01,2013-01-28 13:37:00,
2013-01-28 08:42:00,47.4,46.6,30.03,South,181,3.0,17.0,97,0.00,,SKC,0.16,VWS V14.01,2013-01-28 13:42:00,
2013-01-28 08:47:00,47.4,46.6,30.02,SSW,193,0.0,23.0,97,0.00,,SKC,0.16,VWS V14.01,2013-01-28 13:47:00,
2013-01-28 08:53:00,47.6,46.8,30.02,South,181,6.0,23.0,97,0.00,,SKC,0.16,VWS V14.01,2013-01-28 13:53:00,
2013-01-28 08:58:00,47.6,46.8,30.02,SW,223,2.0,23.0,97,0.00,,SKC,0.16,VWS V14.01,2013-01-28 13:58:00,
2013-01-28 09:03:00,47.6,46.5,30.03,WSW,238,4.0,6.0,96,0.00,,SKC,0.16,VWS V14.01,2013-01-28 14:03:00,
2013-01-28 09:08:00,47.6,46.5,30.03,South,191,3.0,11.0,96,0.00,,SKC,0.16,VWS V14.01,2013-01-28 14:08:00,
2013-01-28 09:13:00,47.6,46.5,30.03,SSW,198,2.0,12.0,96,0.00,,SKC,0.16,VWS V14.01,2013-01-28 14:13:00,
2013-01-28 09:18:00,47.6,46.5,30.03,SSW,193,4.0,19.0,96,0.00,,SKC,0.16,VWS V14.01,2013-01-28 14:18:00,
2013-01-28 09:23:00,47.7,46.6,30.03,SSW,202,10.0,19.0,96,0.00,,SKC,0.16,VWS V14.01,2013-01-28 14:23:00,
2013-01-28 09:28:00,47.7,46.6,30.03,SSW,194,6.0,19.0,96,0.00,,SKC,0.16,VWS V14.01,2013-01-28 14:28:00,
2013-01-28 09:33:00,47.7,46.6,30.03,South,181,5.0,13.0,96,0.00,,SKC,0.16,VWS V14.01,2013-01-28 14:33:00,
2013-01-28 09:38:00,47.9,46.8,30.03,SSW,199,6.0,14.0,96,0.00,,SKC,0.16,VWS V14.01,2013-01-28 14:38:00,
2013-01-28 09:44:00,48.0,46.9,30.03,SW,219,6.0,18.0,96,0.00,,SKC,0.16,VWS V14.01,2013-01-28 14:44:00,
2013-01-28 09:49:00,48.0,46.6,30.03,SSW,204,3.0,18.0,95,0.00,,SKC,0.16,VWS V14.01,2013-01-28 14:49:00,
2013-01-28 09:54:00,48.0,46.6,30.03,South,184,1.0,18.0,95,0.00,,SKC,0.16,VWS V14.01,2013-01-28 14:54:00,
2013-01-28 09:59:00,48.2,46.8,30.03,SSW,197,6.0,18.0,95,0.00,,SKC,0.16,VWS V14.01,2013-01-28 14:59:00,
2013-01-28 10:04:00,48.3,46.7,30.03,SW,214,4.0,10.0,94,0.00,,SKC,0.16,VWS V14.01,2013-01-28 15:04:00,
2013-01-28 10:09:00,48.3,46.7,30.03,WSW,250,8.0,10.0,94,0.00,,SKC,0.16,VWS V14.01,2013-01-28 15:09:00,
2013-01-28 10:14:00,48.5,46.9,30.03,SW,219,2.0,11.0,94,0.00,,SKC,0.16,VWS V14.01,2013-01-28 15:14:00,
2013-01-28 10:19:00,48.5,46.9,30.02,South,180,9.0,15.0,94,0.00,,SKC,0.16,VWS V14.01,2013-01-28 15:19:00,
2013-01-28 10:24:00,48.6,46.7,30.02,SSE,156,4.0,15.0,93,0.00,,SKC,0.16,VWS V14.01,2013-01-28 15:24:00,
2013-01-28 10:29:00,48.8,46.9,30.02,SW,214,5.0,15.0,93,0.00,,SKC,0.16,VWS V14.01,2013-01-28 15:29:00,
2013-01-28 10:34:00,48.9,47.0,30.03,South,181,2.0,10.0,93,0.00,,SKC,0.16,VWS V14.01,2013-01-28 15:34:00,
2013-01-28 10:39:00,48.9,46.7,30.03,SSE,165,2.0,10.0,92,0.00,,SKC,0.16,VWS V14.01,2013-01-28 15:39:00,
2013-01-28 10:44:00,48.9,46.7,30.03,South,172,5.0,13.0,92,0.00,,SKC,0.16,VWS V14.01,2013-01-28 15:44:00,
2013-01-28 10:49:00,49.1,46.9,30.04,South,188,4.0,13.0,92,0.00,,SKC,0.16,VWS V14.01,2013-01-28 15:49:00,
2013-01-28 10:54:00,49.2,47.0,30.04,SSW,195,3.0,14.0,92,0.00,,SKC,0.16,VWS V14.01,2013-01-28 15:54:00,
2013-01-28 10:59:00,49.2,47.0,30.04,South,178,2.0,14.0,92,0.00,,SKC,0.16,VWS V14.01,2013-01-28 15:59:00,
2013-01-28 11:05:00,49.4,47.2,30.04,SSW,205,0.0,6.0,92,0.00,,SKC,0.16,VWS V14.01,2013-01-28 16:05:00,
2013-01-28 11:10:00,49.4,47.2,30.04,SSW,206,3.0,9.0,92,0.00,,SKC,0.16,VWS V14.01,2013-01-28 16:10:00,
2013-01-28 11:15:00,49.4,47.2,30.04,SSW,203,2.0,9.0,92,0.00,,SKC,0.16,VWS V14.01,2013-01-28 16:15:00,
2013-01-28 11:20:00,49.5,47.3,30.04,SSW,195,5.0,13.0,92,0.00,,SKC,0.16,VWS V14.01,2013-01-28 16:20:00,
2013-01-28 11:25:00,49.5,47.3,30.04,SSW,192,6.0,13.0,92,0.00,,SKC,0.16,VWS V14.01,2013-01-28 16:25:00,
2013-01-28 11:30:00,49.6,47.4,30.04,SSW,192,3.0,14.0,92,0.00,,SKC,0.16,VWS V14.01,2013-01-28 16:30:00,
2013-01-28 11:35:00,49.6,47.4,30.04,SSW,212,1.0,14.0,92,0.00,,SKC,0.16,VWS V14.01,2013-01-28 16:35:00,
2013-01-28 11:40:00,49.6,47.1,30.04,SSW,210,6.0,14.0,91,0.00,,SKC,0.16,VWS V14.01,2013-01-28 16:40:00,
2013-01-28 11:45:00,49.6,47.1,30.04,SSE,160,2.0,14.0,91,0.00,,SKC,0.16,VWS V14.01,2013-01-28 16:45:00,
2013-01-28 11:50:00,49.6,47.1,30.04,South,187,8.0,14.0,91,0.00,,SKC,0.16,VWS V14.01,2013-01-28 16:50:00,
2013-01-28 11:55:00,49.8,47.6,30.04,South,172,7.0,14.0,92,0.00,,SKC,0.16,VWS V14.01,2013-01-28 16:55:00,
2013-01-28 12:00:00,49.8,47.6,30.03,South,178,12.0,15.0,92,0.00,,SKC,0.16,VWS V14.01,2013-01-28 17:00:00,
2013-01-28 12:05:00,50.1,47.9,30.03,South,181,2.0,11.0,92,0.00,,SKC,0.16,VWS V14.01,2013-01-28 17:05:00,
2013-01-28 12:10:00,50.1,47.9,30.03,SSW,199,6.0,12.0,92,0.00,,SKC,0.16,VWS V14.01,2013-01-28 17:10:00,
2013-01-28 12:15:00,50.1,47.9,30.03,SW,214,6.0,15.0,92,0.00,,SKC,0.16,VWS V14.01,2013-01-28 17:15:00,
2013-01-28 12:20:00,50.1,47.9,30.03,SSW,210,3.0,15.0,92,0.00,,SKC,0.16,VWS V14.01,2013-01-28 17:20:00,
2013-01-28 12:25:00,50.2,48.0,30.03,SSW,192,7.0,15.0,92,0.00,,SKC,0.16,VWS V14.01,2013-01-28 17:25:00,
2013-01-28 12:30:00,50.4,48.2,30.03,SSW,195,5.0,19.0,92,0.00,,SKC,0.16,VWS V14.01,2013-01-28 17:30:00,
2013-01-28 12:35:00,50.4,48.2,30.03,SSW,192,2.0,11.0,92,0.00,,SKC,0.16,VWS V14.01,2013-01-28 17:35:00,
2013-01-28 12:40:00,50.4,48.2,30.03,SSW,207,4.0,13.0,92,0.00,,SKC,0.16,VWS V14.01,2013-01-28 17:40:00,
2013-01-28 12:45:00,50.5,48.3,30.02,South,183,11.0,13.0,92,0.00,,SKC,0.16,VWS V14.01,2013-01-28 17:45:00,
2013-01-28 12:50:00,50.7,48.5,30.02,SSW,193,6.0,15.0,92,0.00,,SKC,0.16,VWS V14.01,2013-01-28 17:50:00,
2013-01-28 12:55:00,50.7,48.5,30.02,SSW,195,3.0,15.0,92,0.00,,SKC,0.16,VWS V14.01,2013-01-28 17:55:00,
2013-01-28 13:00:00,50.7,48.5,30.01,South,191,3.0,4.0,92,0.00,,SKC,0.16,VWS V14.01,2013-01-28 18:00:00,
2013-01-28 13:05:00,50.8,48.6,30.01,SSW,205,4.0,14.0,92,0.00,,SKC,0.16,VWS V14.01,2013-01-28 18:05:00,
2013-01-28 13:10:00,50.8,48.6,30.01,SSW,203,7.0,16.0,92,0.00,,SKC,0.16,VWS V14.01,2013-01-28 18:10:00,
2013-01-28 13:16:00,50.8,48.6,30.01,South,169,2.0,16.0,92,0.00,,SKC,0.16,VWS V14.01,2013-01-28 18:16:00,
2013-01-28 13:21:00,51.0,48.8,30.01,South,183,2.0,16.0,92,0.00,,SKC,0.16,VWS V14.01,2013-01-28 18:21:00,
2013-01-28 13:26:00,51.0,48.8,30.01,SSW,195,12.0,16.0,92,0.00,,SKC,0.16,VWS V14.01,2013-01-28 18:26:00,
2013-01-28 13:31:00,51.0,49.0,30.00,ESE,116,6.0,6.0,93,0.00,,SKC,0.16,VWS V14.01,2013-01-28 18:31:00,
2013-01-28 13:36:00,51.0,49.0,30.00,SW,214,2.0,12.0,93,0.00,,SKC,0.16,VWS V14.01,2013-01-28 18:36:00,
2013-01-28 13:41:00,51.1,49.2,30.00,SSW,195,3.0,12.0,93,0.00,,SKC,0.16,VWS V14.01,2013-01-28 18:41:00,
2013-01-28 13:46:00,51.1,49.2,30.00,South,179,1.0,12.0,93,0.00,,SKC,0.16,VWS V14.01,2013-01-28 18:46:00,
2013-01-28 13:51:00,51.3,49.3,30.00,SSE,167,5.0,12.0,93,0.00,,SKC,0.16,VWS V14.01,2013-01-28 18:51:00,
2013-01-28 13:57:00,51.3,49.3,30.00,WSW,238,5.0,12.0,93,0.00,,SKC,0.16,VWS V14.01,2013-01-28 18:57:00,
2013-01-28 14:02:00,51.4,49.5,29.98,WSW,238,4.0,7.0,93,0.00,,SKC,0.16,VWS V14.01,2013-01-28 19:02:00,
2013-01-28 14:07:00,51.6,49.7,29.98,SSE,161,2.0,12.0,93,0.00,,SKC,0.16,VWS V14.01,2013-01-28 19:07:00,
2013-01-28 14:12:00,51.6,49.7,29.98,SW,215,7.0,12.0,93,0.00,,SKC,0.16,VWS V14.01,2013-01-28 19:12:00,
2013-01-28 14:17:00,51.7,49.8,29.98,SSW,212,3.0,12.0,93,0.00,,SKC,0.16,VWS V14.01,2013-01-28 19:17:00,
2013-01-28 14:22:00,51.7,49.8,29.98,South,180,2.0,12.0,93,0.00,,SKC,0.16,VWS V14.01,2013-01-28 19:22:00,
2013-01-28 14:27:00,51.7,49.8,29.98,South,177,0.0,12.0,93,0.00,,SKC,0.16,VWS V14.01,2013-01-28 19:27:00,
2013-01-28 14:32:00,51.7,49.8,29.99,SSE,158,1.0,11.0,93,0.00,,SKC,0.16,VWS V14.01,2013-01-28 19:32:00,
2013-01-28 14:37:00,51.7,49.8,29.99,SSW,201,4.0,11.0,93,0.00,,SKC,0.16,VWS V14.01,2013-01-28 19:37:00,
2013-01-28 14:42:00,51.7,49.8,29.99,SSW,197,4.0,11.0,93,0.00,,SKC,0.16,VWS V14.01,2013-01-28 19:42:00,
2013-01-28 14:47:00,51.7,49.8,29.98,WSW,245,2.0,11.0,93,0.00,,SKC,0.16,VWS V14.01,2013-01-28 19:47:00,
2013-01-28 14:53:00,51.9,49.9,29.98,SSW,212,4.0,11.0,93,0.00,,SKC,0.16,VWS V14.01,2013-01-28 19:53:00,
2013-01-28 14:58:00,51.9,49.9,29.98,SE,145,2.0,14.0,93,0.00,,SKC,0.16,VWS V14.01,2013-01-28 19:58:00,
2013-01-28 15:03:00,52.0,50.0,29.98,SSW,201,3.0,10.0,93,0.00,,SKC,0.16,VWS V14.01,2013-01-28 20:03:00,
2013-01-28 15:08:00,52.0,50.0,29.98,SSW,212,11.0,11.0,93,0.00,,SKC,0.16,VWS V14.01,2013-01-28 20:08:00,
2013-01-28 15:13:00,52.0,50.0,29.98,SSW,210,1.0,17.0,93,0.00,,SKC,0.16,VWS V14.01,2013-01-28 20:13:00,
2013-01-28 15:18:00,52.0,50.0,29.98,South,184,3.0,17.0,93,0.00,,SKC,0.16,VWS V14.01,2013-01-28 20:18:00,
2013-01-28 15:23:00,52.0,50.3,29.98,SW,224,3.0,17.0,94,0.00,,SKC,0.16,VWS V14.01,2013-01-28 20:23:00,
2013-01-28 15:28:00,52.0,50.3,29.98,SSW,193,4.0,17.0,94,0.00,,SKC,0.16,VWS V14.01,2013-01-28 20:28:00,
2013-01-28 15:33:00,52.0,50.3,29.99,SW,221,7.0,7.0,94,0.00,,SKC,0.16,VWS V14.01,2013-01-28 20:33:00,
2013-01-28 15:38:00,52.0,50.3,29.99,SSE,161,5.0,14.0,94,0.00,,SKC,0.16,VWS V14.01,2013-01-28 20:38:00,
2013-01-28 15:44:00,52.0,50.3,29.99,SSW,199,3.0,14.0,94,0.00,,SKC,0.16,VWS V14.01,2013-01-28 20:44:00,
2013-01-28 15:49:00,52.0,50.3,29.99,SSW,208,10.0,14.0,94,0.00,,SKC,0.16,VWS V14.01,2013-01-28 20:49:00,
2013-01-28 15:54:00,52.0,50.3,29.99,SSW,213,5.0,14.0,94,0.00,,SKC,0.16,VWS V14.01,2013-01-28 20:54:00,
2013-01-28 15:59:00,51.9,50.2,29.99,SW,232,3.0,14.0,94,0.00,,SKC,0.16,VWS V14.01,2013-01-28 20:59:00,
2013-01-28 16:04:00,51.9,50.2,30.00,SSW,195,0.0,10.0,94,0.00,,SKC,0.16,VWS V14.01,2013-01-28 21:04:00,
2013-01-28 16:09:00,51.9,50.5,30.00,SSW,196,0.0,10.0,95,0.00,,SKC,0.16,VWS V14.01,2013-01-28 21:09:00,
2013-01-28 16:14:00,52.0,50.6,30.00,SSE,163,4.0,12.0,95,0.00,,SKC,0.16,VWS V14.01,2013-01-28 21:14:00,
2013-01-28 16:19:00,52.0,50.6,30.00,South,175,4.0,12.0,95,0.00,,SKC,0.16,VWS V14.01,2013-01-28 21:19:00,
2013-01-28 16:24:00,52.0,50.6,30.00,South,190,6.0,12.0,95,0.00,,SKC,0.16,VWS V14.01,2013-01-28 21:24:00,
2013-01-28 16:29:00,52.0,50.6,30.00,South,177,3.0,12.0,95,0.00,,SKC,0.16,VWS V14.01,2013-01-28 21:29:00,
2013-01-28 16:34:00,52.0,50.6,30.00,SW,225,3.0,8.0,95,0.00,,SKC,0.16,VWS V14.01,2013-01-28 21:34:00,
2013-01-28 16:39:00,52.2,50.8,30.00,South,185,0.0,10.0,95,0.00,,SKC,0.16,VWS V14.01,2013-01-28 21:39:00,
2013-01-28 16:44:00,52.2,51.1,30.00,SSW,200,1.0,10.0,96,0.00,,SKC,0.16,VWS V14.01,2013-01-28 21:44:00,
2013-01-28 16:49:00,52.0,50.9,30.00,SSE,159,2.0,10.0,96,0.00,,SKC,0.16,VWS V14.01,2013-01-28 21:49:00,
2013-01-28 16:54:00,52.0,50.9,30.00,South,191,2.0,10.0,96,0.00,,SKC,0.16,VWS V14.01,2013-01-28 21:54:00,
2013-01-28 17:00:00,52.0,50.9,30.00,WSW,241,1.0,10.0,96,0.00,,SKC,0.16,VWS V14.01,2013-01-28 22:00:00,
2013-01-28 17:05:00,52.0,50.9,30.00,South,189,1.0,4.0,96,0.00,,SKC,0.16,VWS V14.01,2013-01-28 22:05:00,
2013-01-28 17:10:00,52.0,50.9,30.00,South,189,2.0,9.0,96,0.00,,SKC,0.16,VWS V14.01,2013-01-28 22:10:00,
2013-01-28 17:15:00,52.0,50.9,30.00,SW,231,5.0,9.0,96,0.00,,SKC,0.16,VWS V14.01,2013-01-28 22:15:00,
2013-01-28 17:20:00,52.0,50.9,30.00,SE,136,2.0,9.0,96,0.00,,SKC,0.16,VWS V14.01,2013-01-28 22:20:00,
2013-01-28 17:25:00,52.2,51.1,30.00,South,174,5.0,9.0,96,0.01,,SKC,0.17,VWS V14.01,2013-01-28 22:25:00,
2013-01-28 17:30:00,52.2,51.1,30.00,South,170,3.0,9.0,96,0.01,,SKC,0.17,VWS V14.01,2013-01-28 22:30:00,
2013-01-28 17:35:00,52.2,51.1,30.00,South,171,2.0,10.0,96,0.01,,SKC,0.17,VWS V14.01,2013-01-28 22:35:00,
2013-01-28 17:40:00,52.2,51.1,30.00,South,186,2.0,10.0,96,0.01,,SKC,0.17,VWS V14.01,2013-01-28 22:40:00,
2013-01-28 17:45:00,52.3,51.2,30.00,South,176,7.0,10.0,96,0.01,,SKC,0.17,VWS V14.01,2013-01-28 22:45:00,
2013-01-28 17:50:00,52.3,51.2,30.00,SW,217,4.0,11.0,96,0.01,,SKC,0.17,VWS V14.01,2013-01-28 22:50:00,
2013-01-28 17:55:00,52.3,51.2,30.00,SW,221,1.0,11.0,96,0.01,,SKC,0.17,VWS V14.01,2013-01-28 22:55:00,
2013-01-28 18:00:00,52.2,51.1,30.01,SW,215,2.0,11.0,96,0.01,,SKC,0.17,VWS V14.01,2013-01-28 23:00:00,
2013-01-28 18:05:00,52.2,51.1,30.01,South,190,0.0,6.0,96,0.01,,SKC,0.17,VWS V14.01,2013-01-28 23:05:00,
2013-01-28 18:10:00,52.2,51.1,30.01,South,188,4.0,7.0,96,0.01,,SKC,0.17,VWS V14.01,2013-01-28 23:10:00,
2013-01-28 18:15:00,52.2,51.1,30.01,WSW,250,0.0,7.0,96,0.01,,SKC,0.17,VWS V14.01,2013-01-28 23:15:00,
2013-01-28 18:20:00,52.2,51.1,30.01,SSE,168,0.0,10.0,96,0.01,,SKC,0.17,VWS V14.01,2013-01-28 23:20:00,
2013-01-28 18:25:00,52.2,51.4,30.01,South,186,3.0,11.0,97,0.01,,SKC,0.17,VWS V14.01,2013-01-28 23:25:00,
2013-01-28 18:30:00,52.2,51.1,30.01,WSW,243,3.0,11.0,96,0.01,,SKC,0.17,VWS V14.01,2013-01-28 23:30:00,
2013-01-28 18:35:00,52.2,51.1,30.01,SW,233,0.0,5.0,96,0.00,,SKC,0.17,VWS V14.01,2013-01-28 23:35:00,
2013-01-28 18:41:00,52.2,51.1,30.01,SSW,193,1.0,6.0,96,0.00,,SKC,0.17,VWS V14.01,2013-01-28 23:41:00,
2013-01-28 18:46:00,52.2,51.4,30.02,South,171,2.0,6.0,97,0.00,,SKC,0.17,VWS V14.01,2013-01-28 23:46:00,
2013-01-28 18:51:00,52.2,51.4,30.02,SW,231,4.0,6.0,97,0.00,,SKC,0.17,VWS V14.01,2013-01-28 23:51:00,
2013-01-28 18:56:00,52.3,51.5,30.02,SSW,206,1.0,11.0,97,0.00,,SKC,0.17,VWS V14.01,2013-01-28 23:56:00,
2013-01-28 19:01:00,52.3,51.5,30.02,SW,236,3.0,3.0,97,0.00,,SKC,0.17,VWS V14.01,2013-01-29 00:01:00,
2013-01-28 19:06:00,52.3,51.5,30.02,South,183,0.0,5.0,97,0.00,,SKC,0.17,VWS V14.01,2013-01-29 00:06:00,
2013-01-28 19:11:00,52.3,51.5,30.02,South,183,4.0,10.0,97,0.00,,SKC,0.17,VWS V14.01,2013-01-29 00:11:00,
2013-01-28 19:17:00,52.3,51.5,30.02,SE,139,2.0,10.0,97,0.00,,SKC,0.17,VWS V14.01,2013-01-29 00:17:00,
2013-01-28 19:22:00,52.5,51.7,30.02,SSW,203,0.0,10.0,97,0.00,,SKC,0.17,VWS V14.01,2013-01-29 00:22:00,
2013-01-28 19:27:00,52.5,51.7,30.02,SSW,197,1.0,10.0,97,0.00,,SKC,0.17,VWS V14.01,2013-01-29 00:27:00,
2013-01-28 19:32:00,52.5,51.7,30.02,South,186,1.0,4.0,97,0.00,,SKC,0.17,VWS V14.01,2013-01-29 00:32:00,
2013-01-28 19:37:00,52.5,51.7,30.02,South,171,3.0,4.0,97,0.00,,SKC,0.17,VWS V14.01,2013-01-29 00:37:00,
2013-01-28 19:42:00,52.3,51.5,30.02,South,175,2.0,6.0,97,0.00,,SKC,0.17,VWS V14.01,2013-01-29 00:42:00,
2013-01-28 19:47:00,52.3,51.5,30.02,SE,141,0.0,6.0,97,0.00,,SKC,0.17,VWS V14.01,2013-01-29 00:47:00,
2013-01-28 19:52:00,52.3,51.5,30.02,SE,141,2.0,6.0,97,0.00,,SKC,0.17,VWS V14.01,2013-01-29 00:52:00,
2013-01-28 19:57:00,52.3,51.5,30.02,South,176,2.0,6.0,97,0.00,,SKC,0.17,VWS V14.01,2013-01-29 00:57:00,
2013-01-28 20:02:00,52.3,51.5,30.02,SSE,168,2.0,4.0,97,0.00,,SKC,0.17,VWS V14.01,2013-01-29 01:02:00,
2013-01-28 20:07:00,52.3,51.5,30.02,SSW,202,2.0,5.0,97,0.00,,SKC,0.17,VWS V14.01,2013-01-29 01:07:00,
2013-01-28 20:12:00,52.3,51.5,30.02,SSE,155,0.0,5.0,97,0.00,,SKC,0.17,VWS V14.01,2013-01-29 01:12:00,
2013-01-28 20:17:00,52.3,51.5,30.02,SSE,153,0.0,11.0,97,0.00,,SKC,0.17,VWS V14.01,2013-01-29 01:17:00,
2013-01-28 20:23:00,52.2,51.4,30.02,South,176,2.0,11.0,97,0.00,,SKC,0.17,VWS V14.01,2013-01-29 01:23:00,
2013-01-28 20:28:00,52.2,51.4,30.02,South,183,0.0,11.0,97,0.00,,SKC,0.17,VWS V14.01,2013-01-29 01:28:00,
2013-01-28 20:33:00,52.2,51.4,30.01,SSE,157,0.0,5.0,97,0.00,,SKC,0.17,VWS V14.01,2013-01-29 01:33:00,
2013-01-28 20:38:00,52.0,51.2,30.01,SSE,155,2.0,6.0,97,0.00,,SKC,0.17,VWS V14.01,2013-01-29 01:38:00,
2013-01-28 20:43:00,52.0,51.2,30.01,ESE,115,0.0,6.0,97,0.00,,SKC,0.17,VWS V14.01,2013-01-29 01:43:00,
2013-01-28 20:48:00,51.9,51.1,30.02,SSW,210,0.0,6.0,97,0.00,,SKC,0.17,VWS V14.01,2013-01-29 01:48:00,
2013-01-28 20:53:00,51.9,51.1,30.02,South,177,0.0,6.0,97,0.00,,SKC,0.17,VWS V14.01,2013-01-29 01:53:00,
2013-01-28 20:58:00,51.7,50.9,30.02,SSE,148,0.0,6.0,97,0.00,,SKC,0.17,VWS V14.01,2013-01-29 01:58:00,
2013-01-28 21:03:00,51.7,50.9,30.01,SSE,148,0.0,3.0,97,0.00,,SKC,0.17,VWS V14.01,2013-01-29 02:03:00,
2013-01-28 21:08:00,51.7,50.9,30.01,SSE,161,0.0,5.0,97,0.00,,SKC,0.17,VWS V14.01,2013-01-29 02:08:00,
2013-01-28 21:13:00,51.6,50.8,30.01,SSE,151,0.0,5.0,97,0.00,,SKC,0.17,VWS V14.01,2013-01-29 02:13:00,
2013-01-28 21:18:00,51.6,50.8,30.02,SSE,158,1.0,5.0,97,0.00,,SKC,0.17,VWS V14.01,2013-01-29 02:18:00,
2013-01-28 21:23:00,51.6,50.8,30.02,SSE,147,0.0,5.0,97,0.00,,SKC,0.17,VWS V14.01,2013-01-29 02:23:00,
2013-01-28 21:28:00,51.6,50.8,30.02,SE,137,1.0,5.0,97,0.00,,SKC,0.17,VWS V14.01,2013-01-29 02:28:00,
2013-01-28 21:33:00,51.6,50.8,30.02,SSE,158,1.0,3.0,97,0.00,,SKC,0.17,VWS V14.01,2013-01-29 02:33:00,
2013-01-28 21:38:00,51.7,50.9,30.02,SSE,165,0.0,5.0,97,0.00,,SKC,0.17,VWS V14.01,2013-01-29 02:38:00,
2013-01-28 21:43:00,51.7,50.9,30.02,SSE,149,2.0,9.0,97,0.00,,SKC,0.17,VWS V14.01,2013-01-29 02:43:00,
2013-01-28 21:49:00,51.7,50.9,30.02,South,183,1.0,9.0,97,0.00,,SKC,0.17,VWS V14.01,2013-01-29 02:49:00,
2013-01-28 21:54:00,51.9,51.1,30.02,SSE,157,0.0,9.0,97,0.00,,SKC,0.17,VWS V14.01,2013-01-29 02:54:00,
2013-01-28 21:59:00,51.9,51.1,30.02,SSE,160,1.0,9.0,97,0.00,,SKC,0.17,VWS V14.01,2013-01-29 02:59:00,
2013-01-28 22:04:00,51.9,51.1,30.01,SE,136,0.0,4.0,97,0.00,,SKC,0.17,VWS V14.01,2013-01-29 03:04:00,
2013-01-28 22:09:00,51.9,51.1,30.01,SE,129,1.0,4.0,97,0.00,,SKC,0.17,VWS V14.01,2013-01-29 03:09:00,
2013-01-28 22:14:00,52.0,51.2,30.01,SSW,193,0.0,7.0,97,0.00,,SKC,0.17,VWS V14.01,2013-01-29 03:14:00,
2013-01-28 22:19:00,52.0,51.2,30.01,SE,131,0.0,7.0,97,0.00,,SKC,0.17,VWS V14.01,2013-01-29 03:19:00,
2013-01-28 22:24:00,52.2,51.4,30.01,SSE,166,1.0,7.0,97,0.00,,SKC,0.17,VWS V14.01,2013-01-29 03:24:00,
2013-01-28 22:29:00,52.2,51.4,30.01,SE,140,0.0,7.0,97,0.00,,SKC,0.17,VWS V14.01,2013-01-29 03:29:00,
2013-01-28 22:34:00,52.2,51.4,30.01,SE,146,0.0,6.0,97,0.00,,SKC,0.17,VWS V14.01,2013-01-29 03:34:00,
2013-01-28 22:39:00,52.3,51.8,30.01,SSE,163,2.0,6.0,98,0.00,,SKC,0.17,VWS V14.01,2013-01-29 03:39:00,
2013-01-28 22:44:00,52.3,51.8,30.01,SSW,202,0.0,6.0,98,0.00,,SKC,0.17,VWS V14.01,2013-01-29 03:44:00,
2013-01-28 22:49:00,52.3,51.8,30.01,South,179,3.0,6.0,98,0.00,,SKC,0.17,VWS V14.01,2013-01-29 03:49:00,
2013-01-28 22:55:00,52.5,52.0,30.01,East,93,0.0,6.0,98,0.00,,SKC,0.17,VWS V14.01,2013-01-29 03:55:00,
2013-01-28 23:00:00,52.6,52.0,30.00,South,169,1.0,6.0,98,0.00,,SKC,0.17,VWS V14.01,2013-01-29 04:00:00,
2013-01-28 23:05:00,52.6,52.0,30.00,ESE,122,0.0,3.0,98,0.00,,SKC,0.17,VWS V14.01,2013-01-29 04:05:00,
2013-01-28 23:10:00,52.8,52.2,30.00,East,96,1.0,4.0,98,0.00,,SKC,0.17,VWS V14.01,2013-01-29 04:10:00,
2013-01-28 23:15:00,52.8,52.2,30.00,SE,129,2.0,5.0,98,0.00,,SKC,0.17,VWS V14.01,2013-01-29 04:15:00,
2013-01-28 23:20:00,52.9,52.3,30.00,SSE,158,1.0,6.0,98,0.00,,SKC,0.17,VWS V14.01,2013-01-29 04:20:00,
2013-01-28 23:25:00,52.9,52.3,30.00,SE,136,3.0,6.0,98,0.00,,SKC,0.17,VWS V14.01,2013-01-29 04:25:00,
2013-01-28 23:30:00,52.6,52.0,30.00,SE,137,0.0,6.0,98,0.00,,SKC,0.17,VWS V14.01,2013-01-29 04:30:00,
2013-01-28 23:35:00,52.3,51.5,30.00,SE,133,3.0,5.0,97,0.00,,SKC,0.17,VWS V14.01,2013-01-29 04:35:00,
2013-01-28 23:40:00,52.0,51.2,30.00,SE,146,1.0,5.0,97,0.00,,SKC,0.17,VWS V14.01,2013-01-29 04:40:00,
2013-01-28 23:45:00,51.9,51.1,30.00,SE,127,0.0,5.0,97,0.00,,SKC,0.17,VWS V14.01,2013-01-29 04:45:00,
2013-01-28 23:50:00,51.7,50.9,30.00,SE,142,4.0,7.0,97,0.00,,SKC,0.17,VWS V14.01,2013-01-29 04:50:00,
2013-01-28 23:55:00,51.6,50.8,30.00,ESE,123,1.0,7.0,97,0.00,,SKC,0.17,VWS V14.01,2013-01-29 04:55:00,